[[{"header":{"parameterUnit":"m.s-1","parameterCategory":1,"la1":30.2991,"la2":30.254,"lo1":-89.0895,"lo2":-89.0444,"dy":0.0017,"dx":0.0017,"nx":28,"ny":28,"refTime":"2024-05-11T09:00:00:Z","depth":0,"parameterNumber":2,"parameterNumberName":"U-component_of_WINDS"},"data":[0,0,0,0,0,0,0,0,0,0,0,0,0,0,0,0,0,0,0,0,0,0,0,0,0,0,0,0,0,0,0,0,0,0,0,0,0,0,0,0,0,0,0,0,0,0,0,0,0,0,0,0,0,0,0,0,0,0,-6.7573,-6.7573,0,-6.7581,-6.7581,-6.7581,-6.7488,-6.7485,-6.7483,-6.748,-6.7486,-6.7489,-6.7491,0,0,0,0,0,0,0,0,0,0,0,0,0,-6.7478,-6.748,-6.7573,-6.7573,-6.7574,-6.7581,-6.7581,-6.7581,-6.7488,-6.7485,-6.7482,-6.7479,-6.7485,-6.7488,-6.7492,0,0,0,0,0,0,0,0,0,0,0,0,0,-6.7506,-6.7481,-6.7573,-6.7528,-6.7524,-6.7581,-6.7581,-6.7581,-6.7489,-6.7485,-6.7481,-6.7478,-6.7484,-6.7488,-6.7492,-6.7592,0,0,-6.7504,-6.7505,0,0,0,0,0,0,0,0,-6.7504,-6.7509,-6.7535,-6.7531,-6.7527,-6.7529,-6.7549,-6.7585,-6.749,-6.7502,-6.748,-6.7476,-6.7504,-6.7506,-6.7515,-6.7592,-6.7593,-6.7504,-6.7506,-6.7508,-6.7509,0,0,0,0,0,0,0,-6.7502,-6.7508,-6.7576,-6.7535,-6.753,-6.7507,-6.7507,-6.7556,-6.7524,-6.7501,-6.7494,-6.7496,-6.7501,-6.7512,-6.7515,-6.7593,-6.7504,-6.7507,-6.751,-6.7511,-6.7752,-6.7756,0,0,0,0,0,0,-6.7507,-6.7507,-6.7576,-6.7576,-6.7506,-6.7512,-6.7512,-6.7532,-6.7523,-6.7518,-6.75,-6.7492,-6.7507,-6.7511,-6.7515,-6.763,-6.7508,-6.7511,-6.7514,-6.7748,-6.7753,-6.7757,0,0,0,0,0,0,-6.7505,-6.7514,-6.7576,-6.754,-6.7546,-6.7518,-6.7542,-6.7535,-6.7545,-6.7523,-6.7516,-6.7517,-6.7504,-6.7509,-6.7574,-6.7629,-6.7513,-6.7517,-6.7743,-6.7749,-6.7755,-6.7862,0,0,0,0,0,0,-6.7503,-6.7514,-6.7551,-6.7542,-6.7549,-6.7635,-6.7545,-6.7538,-6.7553,-6.7543,-6.7537,-6.7532,-6.7502,-6.7568,-6.7577,-6.7632,-6.752,-6.7738,-6.7746,-6.7753,-6.7853,-6.7871,-6.7886,0,0,0,0,0,-6.75,-6.7581,-6.7554,-6.7562,-6.7595,-6.7638,-6.7642,-6.7605,-6.7558,-6.7595,-6.758,-6.7532,-6.7623,-6.7576,-6.7585,-6.7642,-6.7734,-6.7743,-6.7752,-6.7846,-6.7867,-6.7886,0,0,0,0,0,0,-6.7596,-6.7578,-6.7548,-6.7629,-6.7636,-6.7622,-6.7667,-6.763,-6.765,-6.7639,-6.7594,-6.7593,-6.7664,-6.766,-6.7608,-6.7738,-6.767,-6.7681,-6.7737,-6.7758,-6.7774,-6.7772,-6.7523,0,0,0,0,0,-6.7627,-6.7664,-6.7646,-6.7719,-6.7724,-6.7696,-6.7713,-6.7685,-6.769,-6.7692,-6.7682,-6.7689,-6.7718,-6.7738,-6.7765,-6.7854,-6.785,-6.7898,-6.7914,-6.7928,-6.7937,-6.7983,-6.8003,-6.7788,-6.7787,-6.7787,0,0,-6.769,-6.7685,-6.7711,-6.7738,-6.774,-6.7779,-6.7699,-6.7743,-6.7771,-6.7699,-6.7758,-6.7752,-6.7756,-6.7833,-6.7866,-6.7831,-6.7996,-6.794,-6.7951,-6.7952,-6.7994,-6.8015,-6.8033,-6.7794,-6.7793,-6.7792,0,0,-6.7824,-6.7826,-6.7886,-6.789,-6.7895,-6.7876,-6.7891,-6.7884,-6.7877,-6.7937,-6.7883,-6.7917,-6.7969,-6.7974,-6.7983,-6.8123,-6.8079,-6.8134,-6.8218,-6.8263,-6.828,-6.8295,-6.8342,-6.836,-6.8144,-6.8144,-6.8144,0,-6.7902,-6.7958,-6.7921,-6.7969,-6.7982,-6.7922,-6.7982,-6.7988,-6.8001,-6.8011,-6.7973,-6.8037,-6.8036,-6.8113,-6.8147,-6.8158,-6.8172,-6.8131,-6.8281,-6.8295,-6.8308,-6.8353,-6.8371,-6.815,-6.815,-6.8149,-6.8148,0,-6.8052,-6.8093,-6.8141,-6.8155,-6.8175,-6.8229,-6.82,-6.8224,-6.8196,-6.8181,-6.8243,-6.824,-6.8264,-6.8281,-6.8254,-6.8355,-6.8332,-6.8289,-6.8218,-6.8336,-6.8377,-6.8394,-6.8159,-6.8157,-6.8155,-6.8154,0,0,-6.8242,-6.8239,-6.8257,-6.8263,-6.8265,-6.8295,-6.8348,-6.8372,-6.8393,-6.8406,-6.8446,-6.8494,-6.8453,-6.8464,-6.8438,-6.8478,-6.8587,-6.8429,-6.8428,-6.8455,-6.8696,-6.8726,-6.8747,-6.856,-6.8563,-6.8566,-6.8694,0,-6.8371,-6.8458,-6.8428,-6.8517,-6.8553,-6.8498,-6.8543,-6.855,-6.8539,-6.8568,-6.8556,-6.8589,-6.8534,-6.854,-6.8578,-6.8566,-6.8634,-6.8557,-6.8596,-6.8598,-6.8592,-6.8768,-6.88,-6.8921,-6.8711,-6.8713,-6.8715,0,-6.8531,-6.855,-6.8643,-6.864,-6.8654,-6.8696,-6.8716,-6.8745,-6.8752,-6.8741,-6.8755,-6.872,-6.8771,-6.8705,-6.8773,-6.8721,-6.8736,-6.8733,-6.8737,-6.8735,-6.866,-6.8768,-6.8959,-6.8976,-6.8741,-6.8739,-6.8737,0,-6.8656,-6.8707,-6.8768,-6.8776,-6.8775,-6.8805,-6.8806,-6.8809,-6.8826,-6.8845,-6.8855,-6.888,-6.8892,-6.8912,-6.8885,-6.884,-6.8957,-6.8888,-6.8947,-6.8948,-6.897,-6.8968,-6.9163,-6.8988,-6.8987,-6.8987,-6.8987,0,-6.88,-6.8858,-6.8825,-6.8862,-6.8926,-6.8893,-6.8957,-6.8952,-6.8956,-6.8991,-6.8947,-6.8981,-6.8944,-6.8975,-6.8955,-6.9014,-6.9021,-6.9012,-6.9005,-6.9014,-6.9014,-6.9019,-6.9009,-6.8992,-6.8991,-6.899,-6.8989,0,-6.8949,-6.8929,-6.8993,-6.8988,-6.8988,-6.9035,-6.9031,-6.9065,-6.9053,-6.9098,-6.9107,-6.9087,-6.9121,-6.9098,-6.9132,-6.9118,-6.9194,-6.9178,-6.9192,-6.9185,-6.9245,-6.9238,-6.9445,-6.947,-6.9283,-6.9285,-6.9286,0,-6.904,-6.9083,-6.9084,-6.9105,-6.9109,-6.9144,-6.9161,-6.9131,-6.9151,-6.9164,-6.9197,-6.9228,-6.925,-6.9308,-6.9296,-6.9322,-6.9303,-6.9375,-6.9306,-6.9314,-6.93,-6.9296,-6.93,-6.9386,-6.9389,-6.939,-6.9392,0,-6.9202,-6.9191,-6.9218,-6.9244,-6.9266,-6.9284,-6.9298,-6.9318,-6.9288,-6.9313,-6.9348,-6.9366,-6.9402,-6.9432,-6.9455,-6.9455,-6.9418,-6.9415,-6.9429,-6.9436,-6.9441,-6.9436,-6.9225,-6.9408,-6.9407,-6.9406,-6.9405,-6.9404,-6.9322,-6.9358,-6.9365,-6.9397,-6.9405,-6.942,-6.9452,-6.9445,-6.9474,-6.9501,-6.9482,-6.9523,-6.9531,-6.9557,-6.9562,-6.9594,-6.9565,-6.9586,-6.9591,-6.9596,-6.9603,-6.944,-6.9598,-6.9598,-6.9597,-6.9597,-6.9597,0,-6.9479,-6.9482,-6.9513,-6.9534,-6.956,-6.9527,-6.9541,-6.9564,-6.9602,-6.9612,-6.9636,-6.9676,-6.9707,-6.9699,-6.9726,-6.9753,-6.9737,-6.9761,-6.9756,-6.9756,-6.9629,-6.9612,-6.9773,-6.9773,-6.9773,-6.9773,-6.9773,-6.9773,-6.9564,-6.9623,-6.9613,-6.9676,-6.9678,-6.9718,-6.9729,-6.9743,-6.9751,-6.9798,-6.9824,-6.9819,-6.9822,-6.985,-6.9876,-6.9873,-6.9883,-6.9913,-6.9904,-6.9783,-6.9766,-6.9749,-6.9732,-6.9917,-6.9917,-7.0028,-7.0029,-7.003]},{"header":{"parameterUnit":"m.s-1","parameterCategory":1,"la1":30.2991,"la2":30.254,"lo1":-89.0895,"lo2":-89.0444,"dy":0.0017,"dx":0.0017,"nx":28,"ny":28,"refTime":"2024-05-11T09:00:00:Z","depth":0,"parameterNumber":3,"parameterNumberName":"V-component_of_WINDS"},"data":[0,0,0,0,0,0,0,0,0,0,0,0,0,0,0,0,0,0,0,0,0,0,0,0,0,0,0,0,0,0,0,0,0,0,0,0,0,0,0,0,0,0,0,0,0,0,0,0,0,0,0,0,0,0,0,0,0,0,3.3819,3.3819,0,3.3816,3.3816,3.3816,3.3831,3.3832,3.3832,3.3832,3.3825,3.3825,3.3824,0,0,0,0,0,0,0,0,0,0,0,0,0,3.3832,3.3832,3.3819,3.3819,3.3818,3.3816,3.3816,3.3816,3.3831,3.3832,3.3832,3.3833,3.3825,3.3825,3.3824,0,0,0,0,0,0,0,0,0,0,0,0,0,3.3828,3.3832,3.3819,3.3826,3.3826,3.3816,3.3816,3.3816,3.3831,3.3832,3.3832,3.3833,3.3826,3.3825,3.3824,3.3805,0,0,3.3821,3.3821,0,0,0,0,0,0,0,0,3.3828,3.3827,3.3825,3.3825,3.3826,3.3825,3.3818,3.3812,3.3831,3.3829,3.3832,3.3833,3.3824,3.3823,3.3821,3.3805,3.3804,3.3821,3.382,3.382,3.382,0,0,0,0,0,0,0,3.3828,3.3827,3.3817,3.3825,3.3825,3.3828,3.3828,3.3817,3.3823,3.3829,3.383,3.383,3.3825,3.3822,3.3821,3.3804,3.3821,3.382,3.382,3.3819,3.3773,3.3773,0,0,0,0,0,0,3.3828,3.3828,3.3818,3.3817,3.3829,3.3827,3.3827,3.3824,3.3823,3.3823,3.383,3.3831,3.3823,3.3822,3.3821,3.38,3.382,3.3819,3.3819,3.3774,3.3773,3.3772,0,0,0,0,0,0,3.3828,3.3827,3.3818,3.3823,3.3822,3.3826,3.3823,3.3824,3.3822,3.3823,3.3824,3.3826,3.3824,3.3822,3.381,3.38,3.3819,3.3818,3.3775,3.3774,3.3773,3.3756,0,0,0,0,0,0,3.3829,3.3827,3.3821,3.3823,3.3822,3.3807,3.3822,3.3823,3.3821,3.3822,3.382,3.3821,3.3824,3.3811,3.3809,3.3799,3.3817,3.3776,3.3774,3.3773,3.3758,3.3755,3.3752,0,0,0,0,0,3.3829,3.3815,3.382,3.3819,3.3814,3.3806,3.3806,3.3811,3.382,3.3813,3.3814,3.3821,3.3801,3.3809,3.3807,3.3797,3.3776,3.3775,3.3773,3.3759,3.3755,3.3752,0,0,0,0,0,0,3.381,3.3815,3.3821,3.3807,3.3807,3.3809,3.38,3.3807,3.3803,3.3804,3.381,3.381,3.3796,3.3795,3.3804,3.3779,3.379,3.3788,3.378,3.3777,3.3774,3.3774,3.3816,0,0,0,0,0,3.3804,3.3799,3.3804,3.3791,3.379,3.3796,3.3792,3.3797,3.3796,3.3795,3.3795,3.3793,3.3786,3.3781,3.3775,3.3758,3.3758,3.375,3.3747,3.3745,3.3743,3.3734,3.3731,3.3767,3.3767,3.3767,0,0,3.3792,3.3794,3.379,3.3787,3.3787,3.378,3.3795,3.3787,3.3782,3.3793,3.3782,3.3782,3.378,3.3765,3.3758,3.3763,3.3733,3.3743,3.3741,3.374,3.3732,3.3729,3.3726,3.3766,3.3766,3.3767,0,0,3.3766,3.3767,3.3757,3.3758,3.3758,3.3762,3.376,3.3762,3.3763,3.3752,3.3761,3.3754,3.3743,3.3741,3.3738,3.3714,3.372,3.3712,3.3697,3.3689,3.3686,3.3683,3.3675,3.3672,3.371,3.371,3.371,0,3.375,3.3742,3.3751,3.3743,3.3742,3.3754,3.3744,3.3743,3.3741,3.3739,3.3745,3.3732,3.3731,3.3716,3.3711,3.3708,3.3705,3.3711,3.3686,3.3684,3.3681,3.3673,3.367,3.3709,3.3709,3.3709,3.3709,0,3.3722,3.3717,3.3708,3.3708,3.3706,3.3696,3.3703,3.37,3.3705,3.3708,3.3697,3.3697,3.3691,3.3688,3.3693,3.3674,3.3678,3.3685,3.3696,3.3677,3.3669,3.3666,3.3707,3.3708,3.3708,3.3708,0,0,3.3682,3.3689,3.3686,3.3686,3.3689,3.3684,3.3676,3.3672,3.3669,3.3667,3.366,3.3651,3.3659,3.3656,3.366,3.3653,3.3634,3.3661,3.3661,3.3656,3.3614,3.3608,3.3604,3.3639,3.3638,3.3638,3.3614,0,3.3657,3.3644,3.3653,3.3638,3.3633,3.3646,3.3639,3.3639,3.3642,3.3637,3.364,3.3634,3.3644,3.3642,3.3636,3.3638,3.3626,3.364,3.3631,3.363,3.363,3.36,3.3594,3.3571,3.3611,3.3611,3.361,0,3.3626,3.3625,3.3611,3.3616,3.3614,3.3607,3.3605,3.3601,3.3602,3.3604,3.3602,3.3609,3.36,3.3613,3.36,3.361,3.3607,3.3607,3.3607,3.3605,3.3618,3.3597,3.3564,3.3561,3.3606,3.3606,3.3606,0,3.3598,3.3593,3.3584,3.3585,3.359,3.3585,3.3587,3.3588,3.3586,3.3584,3.3583,3.3579,3.3577,3.3574,3.358,3.3588,3.3567,3.3579,3.3568,3.3568,3.3562,3.3562,3.3527,3.3561,3.3561,3.3561,3.3561,0,3.3569,3.3559,3.3572,3.3567,3.3556,3.3566,3.3556,3.3559,3.356,3.3555,3.3565,3.3559,3.3567,3.3562,3.3567,3.3556,3.3555,3.3556,3.3557,3.3555,3.3555,3.3552,3.3554,3.356,3.356,3.3561,3.3561,0,3.3535,3.3544,3.3535,3.3542,3.3543,3.3535,3.354,3.3535,3.354,3.3533,3.3532,3.3538,3.3533,3.3539,3.3533,3.3536,3.3522,3.3526,3.3522,3.3523,3.3512,3.3512,3.3473,3.3469,3.3506,3.3506,3.3505,0,3.3516,3.3509,3.3516,3.3514,3.3516,3.3512,3.351,3.352,3.3518,3.352,3.3514,3.351,3.3507,3.3499,3.3502,3.3498,3.3501,3.3488,3.3501,3.3499,3.3501,3.3501,3.35,3.3485,3.3485,3.3484,3.3484,0,3.348,3.3485,3.3483,3.3484,3.3482,3.3482,3.3483,3.348,3.3491,3.3488,3.3484,3.3482,3.3478,3.3474,3.3471,3.3472,3.3479,3.348,3.3478,3.3475,3.3473,3.3474,3.3515,3.3481,3.3481,3.3481,3.3482,3.3482,3.3453,3.3448,3.3452,3.345,3.3452,3.3453,3.3449,3.3454,3.3451,3.345,3.3456,3.345,3.3452,3.345,3.345,3.3445,3.3451,3.3447,3.3446,3.3444,3.3443,3.3475,3.3445,3.3445,3.3445,3.3445,3.3445,0,3.3417,3.3421,3.342,3.3422,3.342,3.343,3.3431,3.3429,3.3425,3.3426,3.3424,3.342,3.3417,3.3421,3.3418,3.3414,3.3417,3.3412,3.3412,3.3412,3.3438,3.3441,3.341,3.341,3.341,3.341,3.341,3.341,3.3399,3.3391,3.3397,3.339,3.3394,3.3391,3.3391,3.3391,3.3393,3.3388,3.3386,3.339,3.3393,3.339,3.3388,3.3389,3.3387,3.3381,3.3384,3.3407,3.341,3.3414,3.3416,3.3381,3.3381,3.3359,3.3358,3.3358]}]]